www.pogodaiklimat.ru

Погода и климат >> Архив погоды >> Финляндия >> Наккала


ПОГОДА в Наккала

  • Прогноз погоды в Наккала
  • Монитор погоды в Наккала

АРХИВ ПОГОДЫ в Наккала

Время (UTC), дата Ветер
(напр.,м/с)
 
Видим.   Явления Облачность Т
(С)
Тd
(С)
f
(%)
Тe
(С)
Тes
(С)
Комфортность P
(гПа)
Po
(гПа)
Тmin
(С)
Tmax
(С)
R
(мм)
R24
(мм)
S
(см)
19 8.09 Ю 4-6
{6}
50 км 8/8
[]
+9.3 +6.8 84 +6 +6 1022.1 976.7
20 8.09 Ю 4 50 км 9/9
[]
+9.0 +7.1 88 +6 +6 1021.8 976.4
21 8.09 Ю 4-7
{7}
50 км 9/8 2000 м
[]
+8.4 +7.1 92 +5 +5 1021.8 976.3
22 8.09 ЮЗ 4 50 км слаб. ливневой дождь 9/1 200 м
[]
+8.0 +6.9 93 +5 +5 1022.2 976.6
23 8.09 Ю 4 50 км в посл. час морось 3/3 2000 м
[]
+7.8 +6.7 93 +4 +4 1022.5 976.9
00 9.09 Ю 4-6
{6}
50 км 9/9
[]
+7.3 +6.3 93 +4 +4 1022.4 976.6
01 9.09 Ю 3 50 км в посл. час осадки 8/8 2000 м
[]
+6.5 +5.8 95 +3 +3 1022.6 976.8
02 9.09 Ю 4 50 км 9/9
[]
+6.0 +5.4 96 +2 +2 1022.4 976.5
03 9.09 Ю 3-5
{5}
50 км 10/10
[]
+6.1 +5.3 95 +3 +3 1022.7 976.8
04 9.09 Ю 3-4
{5}
50 км 9/3
[]
+6.0 +5.2 95 +3 +3 1022.9 976.9
05 9.09 Ю 3-5
{5}
50 км 9/0
[]
+5.8 +5.2 96 +2 +2 1023.0 977.0
06 9.09 Ю 4-6
{6}
45 км 9/9
[]
+7.6 +5.2 85 +4 +4 1022.9 977.2 +5.4 +9.5
07 9.09 Ю 3 50 км 9/0
[]
+8.2 +5.5 83 +6 +6 1022.9 977.3
08 9.09 ЮЗ 3-5
{6}
50 км 9/0
[]
+10.3 +3.9 64 +8 +9 1022.6 977.3
09 9.09 Ю 3-5
{5}
45 км 9/3
[]
+10.9 +5.6 70 +9 +10 1022.5 977.4
10 9.09 Ю 4 50 км 9/1
[]
+12.7 +5.0 59 +11 +12 1022.2 977.3
11 9.09 Ю 4 45 км 9/0
[]
+14.1 +5.5 56 +13 +14 1021.8 977.1
12 9.09 ЮЗ 4-6
{7}
45 км 9/0
[]
+14.5 +4.3 50 +13 +15 1022.0 977.4
13 9.09 Ю 5 40 км 8/0
[]
+13.7 +4.1 52 +12 +13 1022.1 977.4
14 9.09 Ю 5 40 км ясно +13.5 +2.8 48 +12 +13 1022.0 977.3
15 9.09 Ю 4-7
{7}
50 км 8/0
[]
+12.2 +2.3 51 +11 +11 1022.4 977.5
16 9.09 Ю 3 50 км 9/0
[]
+11.6 +4.0 60 +10 +10 1022.5 977.5
17 9.09 Ю 2 50 км 9/0
[]
+10.2 +5.7 74 +9 +9 1022.7 977.5
18 9.09 Ю 3-4
{4}
50 км 10/0
[]
+9.8 +5.2 73 +8 +8 1022.8 977.4 +7.6 +14.5
19 9.09 Ю 3 50 км 10/0
[]
+10.0 +5.6 74 +8 +8 1022.8 977.4
20 9.09 Ю 3 50 км 10/0
[]
+9.3 +5.6 78 +7 +7 1023.0 977.5
21 9.09 Ю 4-5
{5}
50 км 9/0
[]
+9.3 +5.6 78 +6 +6 1022.9 977.5
22 9.09 Ю 3 50 км 9/9
[]
+8.7 +5.4 80 +6 +6 1023.0 977.4
23 9.09 Ю 3 50 км 4/0
[]
+8.1 +5.1 81 +5 +5 1022.9 977.3
00 10.09 Ю 3-5
{6}
50 км 9/9
[]
+8.1 +5.3 82 +5 +5 1022.8 977.1
01 10.09 Ю 4-7
{7}
50 км 9/9
[]
+8.1 +5.3 82 +5 +5 1022.6 977.0
02 10.09 Ю 4 50 км 9/9
[]
+8.0 +5.4 84 +5 +5 1022.0 976.4
03 10.09 Ю 4-6
{7}
50 км 10/10
[]
+7.7 +5.3 85 +4 +4 1021.7 976.1
04 10.09 Ю 4 50 км 8/3
[]
+7.0 +5.3 89 +3 +3 1021.7 976.0
05 10.09 Ю 5-6
{7}
50 км ясно +6.5 +5.5 93 +2 +2 1021.4 975.6
06 10.09 Ю 6-9
{10}
40 км ясно +7.9 +5.8 87 +4 +4 1021.0 975.5 +6.4 +10.1
07 10.09 Ю 4 45 км ясно +9.8 +6.6 80 +7 +8 1020.5 975.3
08 10.09 Ю 6 45 км ясно +12.2 +7.3 72 +10 +11 1020.1 975.3
09 10.09 Ю 5-10
{12}
50 км 5/5 1000 м
[]
+12.1 +7.4 73 +10 +11 1019.9 975.1
10 10.09 Ю 5-8
{10}
27 км 10/0 300 м
[]
+12.1 +8.4 78 +10 +10 1019.8 975.0
11 10.09 Ю 5 50 км в посл. час морось 10/10 300 м
[]
+12.7 +9.0 78 +11 +11 1019.5 974.7
12 10.09 Ю 5-8
{10}
50 км 10/10 300 м
[]
+14.1 +10.2 77 +12 +12 1018.7 974.2
13 10.09 Ю 5 45 км 9/9 300 м
[]
+14.1 +10.3 78 +12 +12 1018.5 974.0
14 10.09 Ю 6-11
{11}
50 км 10/0 300 м
[]
+13.9 +10.6 80 +12 +12 1018.3 973.8
15 10.09 Ю 6-10
{11}
35 км 5/5 300 м
[]
+13.5 +10.2 80 +11 +11 1017.8 973.2
16 10.09 Ю 6-9
{10}
45 км 5/0 300 м
[]
+12.4 +10.3 87 +10 +10 1017.6 972.8
17 10.09 Ю 6 28 км 10/10 200 м
[]
+11.5 +10.2 92 +8 +8 1017.5 972.7
18 10.09 Ю 4-7
{10}
27 км 10/10 200 м
[]
+11.5 +10.3 92 +9 +9 1017.3 972.4 +7.9 +15.1
19 10.09 Ю 5 26 км 10/10 200 м
[]
+11.6 +10.3 92 +9 +9 1016.6 971.8
20 10.09 Ю 4 11 км 10/10 100 м
[]
+11.4 +10.6 95 +9 +9 1016.4 971.5
21 10.09 Ю 5-8
{8}
3400 м слаб. морось 10/10 50 м
[]
+11.1 +10.8 98 +8 +8 1016.0 971.2
22 10.09 Ю 6-8
{8}
2400 м в посл. час морось 10/0 50 м
[]
+11.1 +10.9 99 +8 +8 1015.5 970.7
23 10.09 Ю 6 800 м туман ?/? +11.1 +11.0 99 +8 +8 1015.2 970.4
00 11.09 Ю 5-8
{9}
3800 м в посл. час туман 10/10 50 м
[]
+11.2 +11.1 99 +8 +8 1014.6 969.9
01 11.09 Ю 6 21 км 10/10 50 м
[]
+11.4 +11.2 99 +8 +8 1014.0 969.3
02 11.09 Ю 6 27 км 10/10 100 м
[]
+11.5 +11.2 98 +8 +8 1013.4 968.8
03 11.09 Ю 6-9
{9}
10 км 10/10 50 м
[]
+11.6 +11.2 97 +9 +9 1012.9 968.2
04 11.09 Ю 5 20 км 10/10 100 м
[]
+11.8 +11.2 96 +9 +9 1012.8 968.2
05 11.09 Ю 6 29 км 10/10 100 м
[]
+11.8 +11.1 95 +9 +9 1012.3 967.8
06 11.09 Ю 6-9
{10}
27 км в посл. час дождь 10/10 100 м
[]
+12.1 +11.1 94 +9 +9 1012.1 967.6 +11.1 +12.1
07 11.09 Ю 5-8
{10}
14 км 10/0 100 м
[]
+12.0 +11.4 96 +9 +9 1012.1 967.6
08 11.09 Ю 5-6
{8}
3100 м морось 10/0 100 м
[]
+12.1 +11.7 97 +10 +10 1011.7 967.2
09 11.09 Ю 5-8
{8}
8000 м морось 10/10 100 м
[]
+12.7 +12.2 97 +10 +10 1011.4 967.0 0.1
10 11.09 Ю 5 22 км в посл. час морось 10/10 100 м
[]
+13.1 +12.4 96 +11 +11 1011.0 966.7
11 11.09 Ю 5 17 км 10/10 200 м
[]
+13.3 +12.1 92 +11 +11 1010.4 966.1
12 11.09 Ю 4-6
{8}
23 км 10/10 200 м
[]
+13.5 +11.9 90 +12 +12 1009.8 965.6
13 11.09 Ю 4 40 км 10/10 300 м
[]
+14.1 +12.0 87 +13 +13 1008.8 964.7
14 11.09 Ю 5 18 км 10/10 200 м
[]
+13.6 +12.2 91 +12 +12 1008.3 964.2
15 11.09 Ю 4-7
{8}
18 км 9/9 200 м
[]
+13.6 +12.0 90 +12 +12 1007.2 963.2
16 11.09 Ю 4 14 км 9/8 300 м
[]
+13.6 +12.0 90 +12 +12 1006.7 962.6
17 11.09 Ю 3-7
{7}
16 км 6/5 600 м
[]
+13.5 +12.0 91 +12 +12 1005.5 961.5
18 11.09 Ю 3-5
{7}
13 км ясно +13.0 +11.7 92 +12 +12 1004.8 960.8 +12.0 +14.1 0.2
19 11.09 Ю 3-5
{5}
13 км 5/0
[]
+12.5 +11.4 93 +11 +11 1004.1 960.0
20 11.09 Ю 4-5
{6}
8000 м дымка ясно +11.8 +11.3 97 +9 +9 1003.9 959.7
21 11.09 Ю 3-5
{6}
8000 м дымка 9/9 100 м
[]
+11.6 +11.2 97 +10 +10 1003.5 959.3
22 11.09 Ю 3 14 км 9/9 200 м
[]
+11.5 +10.9 96 +10 +10 1002.9 958.7
23 11.09 Ю 5 12 км в посл. час дождь 10/10 100 м
[]
+11.9 +11.3 96 +9 +9 1002.2 958.1
00 12.09 Ю 4-7
{7}
19 км 10/10 200 м
[]
+11.9 +11.0 94 +10 +10 1001.6 957.5
01 12.09 Ю 4-7
{7}
10 км слаб. ливневой дождь 10/0 100 м
[]
+11.7 +11.0 95 +9 +9 1001.4 957.3
02 12.09 Ю 5-7
{8}
6000 м слаб. ливневой дождь 10/10 100 м
[]
+11.6 +11.1 97 +9 +9 1000.9 956.8 0.2
03 12.09 Ю 3-5
{8}
24 км в посл. час морось 10/10 100 м
[]
+11.4 +11.0 97 +9 +9 1000.3 956.2 0.1
04 12.09 Ю 4 7000 м слаб. ливневой дождь 10/10 100 м
[]
+11.4 +11.0 97 +9 +9 999.8 955.8
05 12.09 Ю 4-6
{8}
30 км в посл. час морось 10/0 100 м
[]
+11.5 +11.0 97 +9 +9 999.4 955.4 0.2
06 12.09 Ю 4-7
{7}
30 км в посл. час дождь 10/10 200 м
[]
+11.7 +11.1 96 +9 +9 998.9 954.9 +11.4 +13.0 1
07 12.09 Ю 5 50 км 9/9 100 м
[]
+11.9 +11.0 94 +9 +9 998.5 954.6
08 12.09 Ю 4 30 км слаб. ливневой дождь 10/10 200 м
[]
+12.1 +11.1 94 +10 +10 998.2 954.3
09 12.09 Ю 5-8
{8}
50 км 10/10 200 м
[]
+12.2 +10.7 91 +10 +10 997.6 953.8
10 12.09 Ю 5-10
{10}
13 км слаб. дождь 10/0 300 м
[]
+12.4 +10.5 88 +10 +10 997.2 953.4
11 12.09 ЮВ 4 50 км в посл. час дождь 10/10 300 м
[]
+12.5 +11.0 91 +10 +10 996.5 952.8
12 12.09 Ю 5-7
{8}
40 км слаб. ливневой дождь 10/10 100 м
[]
+11.9 +10.8 93 +9 +9 996.2 952.4 2
13 12.09 Ю 5 45 км слаб. ливневой дождь 9/9 200 м
[]
+11.9 +10.7 92 +9 +9 995.7 951.9
14 12.09 З 3 19 км слаб. дождь 10/10 200 м
[]
+9.9 +9.2 95 +8 +8 995.9 951.8
15 12.09 штиль 0
{3}
12 км морось 10/10 100 м
[]
+10.1 +9.4 95 +9 +9 995.6 951.5 1
16 12.09 штиль 0 5000 м дождь 10/10 1000 м
[]
+9.9 +9.5 97 +9 +9 995.2 951.1
17 12.09 Ю 2-3
{3}
10 км морось 10/0 300 м
[]
+9.8 +9.5 98 +8 +8 995.0 950.9 0.1
18 12.09 СЗ 5 27 км слаб. дождь 10/9 300 м
[]
+9.0 +7.9 93 +5 +5 995.4 951.2 +8.9 +12.8 5
19 12.09 СЗ 3 35 км морось 10/10 1000 м
[]
+8.0 +7.0 93 +5 +5 996.2 951.8
20 12.09 З 2 50 км в посл. час морось 9/5 1000 м
[]
+7.6 +7.0 96 +5 +5 996.4 951.9
21 12.09 З 2-3
{4}
50 км 8/5
[]
+7.2 +6.7 97 +5 +5 996.7 952.1
22 12.09 ЮЗ 2 50 км 9/3
[]
+6.8 +6.3 97 +4 +4 997.0 952.3
23 12.09 З 2 45 км 9/5
[]
+5.9 +5.5 97 +3 +3 997.1 952.3
00 13.09 З 2-3
{4}
50 км 9/9
[]
+4.6 +3.9 95 +2 +2 997.3 952.3
01 13.09 ЮЗ 1 50 км 9/9 600 м
[]
+4.1 +3.7 97 +2 +2 997.6 952.5
02 13.09 З 1
{2}
50 км 10/0 300 м
[]
+4.4 +4.1 98 +3 +3 997.6 952.6
03 13.09 С 1-1
{3}
50 км 10/10 600 м
[]
+4.7 +4.2 97 +3 +3 997.7 952.7
04 13.09 ЮВ 1 11 км морось 10/10 300 м
[]
+4.9 +4.5 97 +3 +3 997.8 952.8
05 13.09 С 1 6000 м ливневой дождь 10/10 100 м
[]
+5.2 +5.0 99 +4 +4 997.8 952.9
06 13.09 СЗ 1-1
{2}
35 км в посл. час дождь 9/9 100 м
[]
+6.5 +6.3 99 +5 +5 998.0 953.3 +4.1 +9.0 1
07 13.09 В 1-1
{2}
50 км 9/5 100 м
[]
+7.2 +6.2 93 +6 +6 998.1 953.5
08 13.09 З 2-4
{4}
50 км 10/10 200 м
[]
+7.8 +6.3 90 +6 +6 998.3 953.8
09 13.09 З 2-4
{4}
45 км 9/8 300 м
[]
+8.6 +5.8 83 +7 +7 998.7 954.3
10 13.09 З 2-3
{4}
40 км 3/3 300 м
[]
+9.2 +6.1 81 +8 +9 998.9 954.5
11 13.09 СЗ 4 40 км 3/1 600 м
[]
+9.8 +4.0 67 +7 +9 999.1 954.8
12 13.09 СЗ 4-6
{6}
50 км 1/1 1500 м
[]
+10.2 +3.4 63 +8 +10 999.5 955.2
13 13.09 СЗ 3 50 км 9/1 600 м
[]
+9.8 +1.8 57 +8 +9 999.9 955.6
14 13.09 С 3 50 км 4/4 1000 м
[]
+10.0 +2.9 61 +8 +9 1000.1 955.8
15 13.09 С 4-6
{10}
13 км ливневой дождь 10/10 600 м
[]
+6.7 +5.0 89 +3 +3 1001.6 956.8 0.5
16 13.09 СВ 3 50 км в посл. час дождь 4/1 1000 м
[]
+5.8 +3.5 85 +3 +3 1002.2 957.2
17 13.09 СЗ 1 50 км 9/4 600 м
[]
+4.9 +3.6 91 +4 +4 1003.1 957.9
18 13.09 СЗ 2-3
{3}
50 км 9/4 1000 м
[]
+4.2 +3.4 95 +1 +1 1003.9 958.5 +4.2 +10.5 0.5
19 13.09 СЗ 3-3
{4}
50 км ясно +3.1 +1.4 89 -1 -1 1004.5 958.9
20 13.09 С 1-3
{4}
50 км ясно +1.9 +0.8 92 0 0 1005.3 959.5
21 13.09 С 1-2
{4}
50 км ясно +0.6 +0.2 97 -2 -2 1006.0 959.9
22 13.09 З 1 50 км ясно +0.1 -0.2 98 -2 -2 1006.4 960.3
23 13.09 С 1 50 км ясно +0.7 +0.2 96 -1 -1 1006.6 960.5
00 14.09 С 2-2
{3}
50 км 4/4
[]
+0.3 -0.1 97 -4 -4 1007.0 960.9
01 14.09 С 2 50 км 9/9
[]
+0.4 0.0 97 -3 -3 1007.3 961.2
02 14.09 С 3-4
{5}
50 км 9/0
[]
+1.0 -0.1 92 -4 -4 1007.4 961.3
03 14.09 С 1-2
{4}
50 км 9/9
[]
+0.4 -0.3 95 -2 -2 1007.7 961.5
04 14.09 штиль 0 50 км 3/1
[]
-0.2 -0.6 97 -2 -2 1008.0 961.7
05 14.09 ЮЗ 1-2
{2}
45 км 9/0
[]
0.0 -0.2 99 -2 -2 1008.1 961.9
06 14.09 Ю 1-2
{2}
45 км ясно +2.8 +1.7 92 +1 +2 1008.0 962.2 -0.9 +4.2
07 14.09 ЮВ 2-3
{4}
45 км 4/0
[]
+3.7 +2.0 89 +1 +2 1007.9 962.3
08 14.09 Ю 2 45 км ясно +5.3 +1.6 77 +3 +5 1007.9 962.5
09 14.09 З 2-3
{3}
45 км 1/1
[]
+7.5 +1.9 68 +6 +8 1007.7 962.6
10 14.09 ЮЗ 2 35 км ясно +8.3 +1.5 62 +7 +10 1007.7 962.8
11 14.09 ЮЗ 1 45 км 5/5 600 м
[]
+8.9 +1.2 58 +9 +11 1007.6 962.8
12 14.09 ЮЗ 3-5
{5}
35 км 5/5 1000 м
[]
+9.5 +0.3 53 +8 +9 1007.4 962.7
13 14.09 ЮЗ 3 45 км 8/8 1500 м
[]
+9.7 -0.5 49 +8 +8 1007.4 962.7
14 14.09 ЮЗ 4 45 км 1/1 1000 м
[]
+9.3 -0.5 50 +7 +8 1007.4 962.6
15 14.09 ЮЗ 3-5
{6}
45 км 1/1 1500 м
[]
+8.9 0.0 54 +7 +7 1007.4 962.6
16 14.09 ЮЗ 3 50 км 1/1 2000 м
[]
+7.0 +0.5 63 +4 +4 1007.5 962.4
17 14.09 Ю 2-3
{3}
50 км 4/0 2000 м
[]
+5.1 +0.7 73 +3 +3 1007.3 961.9
18 14.09 Ю 3-3
{3}
50 км 4/1 1500 м
[]
+3.7 +0.4 79 0 0 1007.1 961.5 +2.7 +10.2
19 14.09 Ю 2 50 км 3/3 1500 м
[]
+3.0 +0.2 82 0 0 1007.0 961.3
20 14.09 Ю 3-3
{4}
50 км ясно +3.0 +0.2 82 -1 -1 1006.6 960.9
21 14.09 Ю 3-3
{4}
50 км 3/3 1500 м
[]
+2.3 +0.3 87 -2 -2 1006.2 960.4
22 14.09 Ю 2 50 км ясно +2.1 +0.6 90 -1 -1 1005.5 959.8
23 14.09 ЮВ 2 50 км ясно +1.7 +0.3 90 -2 -2 1005.2 959.4
00 15.09 Ю 1-2
{4}
50 км 1/1 1500 м
[]
+1.3 +0.4 94 -1 -1 1004.8 958.9
01 15.09 ЮВ 3-4
{5}
50 км 3/0 1500 м
[]
+1.7 +0.2 90 -3 -3 1003.9 958.1
02 15.09 ЮВ 3 50 км 1/1 1500 м
[]
+1.6 +0.2 90 -3 -3 1003.0 957.2
03 15.09 ЮВ 3-5
{6}
50 км ясно +1.1 -0.1 92 -3 -3 1002.4 956.6
04 15.09 ЮВ 4-6
{7}
50 км 6/0 600 м
[]
+1.1 -0.2 91 -4 -4 1001.9 956.1
05 15.09 Ю 3-6
{8}
50 км 8/0 1000 м
[]
+1.9 +0.6 91 -2 -2 1001.1 955.5
06 15.09 ЮВ 5-7
{7}
40 км 5/5 600 м
[]
+2.7 +0.8 87 -3 -3 1000.1 954.6 +0.6 +3.8
07 15.09 ЮВ 5-8
{8}
35 км 4/4 200 м
[]
+3.8 +1.7 86 -1 -1 999.4 954.1
08 15.09 ЮВ 5 30 км 9/9 200 м
[]
+4.9 +2.7 86 0 0 998.6 953.6
09 15.09 ЮВ 8-11
{12}
40 км 9/9 300 м
[]
+6.0 +2.1 76 +1 +1 998.0 953.1
10 15.09 ЮВ 6 45 км 9/9 600 м
[]
+6.5 +2.2 74 +2 +2 997.6 952.8
11 15.09 ЮВ 7 45 км 9/9 600 м
[]
+7.2 +1.4 67 +3 +3 997.2 952.6
12 15.09 ЮВ 6-9
{10}
50 км 9/9 600 м
[]
+7.2 +1.0 65 +3 +3 997.0 952.4
13 15.09 ЮВ 5-9
{10}
50 км 9/1 1000 м
[]
+7.0 +0.6 64 +3 +4 996.9 952.2
14 15.09 ЮВ 5-7
{9}
50 км 9/0 1000 м
[]
+7.0 0.0 61 +3 +3 996.8 952.2
15 15.09 ЮВ 3-5
{7}
50 км 3/3 1000 м
[]
+6.4 -0.1 63 +4 +4 996.7 952.0
16 15.09 В 2 50 км 1/1 1000 м
[]
+6.1 -0.4 63 +4 +4 996.8 952.0
17 15.09 В 3-5
{5}
50 км ясно +5.0 -1.3 64 +2 +2 997.0 952.1
18 15.09 В 3-5
{5}
50 км ясно +3.1 -1.0 74 -1 -1 997.5 952.2 +2.7 +8.0
19 15.09 В 4 50 км ясно +2.7 -1.2 75 -2 -2 997.8 952.4

 

Местоположение метеостанции Наккала (Финляндия): широта 68.60 долгота 23.58 высота над уровнем моря 374 м.

В архиве по умолчанию представлена погода в Наккала за последнюю неделю. Архивные данные за месяц целиком и за предыдущие месяцы, начиная с января 2011 года, Вы можете получить, выбрав интересующий диапазон дат из раскрывающегося списка и нажав кнопку "Ввод!".


*Определитесь, кто Вы:
робот инопланетянин человек

Внимание! Время в таблицах - всемирное. Для получения местного времени необходимо прибавить поправку, которая равна 1 ч.

Смотрите также архив погоды в соседних городах и на ближайших метеорологических станциях:

Погода в Каресуандо (Швеция) (49 км)
Погода в Кёутукейну (Норвегия) (50 км)
Погода в Муонио Лаукукеро (Финляндия) (63 км)
Погода в Муонио Аламуонио (Финляндия) (68 км)
Погода в Киттиля Ломполонвуома (Финляндия) (72 км)
Погода в Киттила Маторова (Финляндия) (72 км)
Погода в Киттила Кенттарова (Финляндия) (73 км)
Погода в Муонио Саммалтунтури (Финляндия) (74 км)
Погода в Наймакке (Швеция) (84 км)
Погода в Суовддатмохкки (Норвегия) (92 км)

Пояснения к столбцам:

Ветер - указаны скорость ветра в м/с - средняя за 10 мин, порывы в срок и между сроками (в фигурных скобках) и направление, откуда дует ветер: С - северный, СВ - северо-восточный, В - восточный, ЮВ - юго-восточный, Ю - южный, ЮЗ - юго-западный, З - западный, СЗ - северо-западный.
Видимость - горизонтальная дальность видимости в метрах или километрах. При видимости от 1 до 10 км при отсутствии осадков обычно наблюдается дымка, при ухудшении видимости до 1 км и менее - туман. В сухую погоду видимость может ухудшаться дымом, пылью или мглою.
Явления - указаны атмосферные явления, наблюдавшиеся в срок или в последний час перед сроком; фигурными скобками обозначены явления, наблюдавшиеся между сроками (за 1-3 часа до срока); квадратными скобками обозначены град или гололедные отложения с указанием их диаметра в мм.
Облачность - указаны через наклонную черту общая и нижняя облачность в баллах и высота нижней границы облаков в метрах; квадратными скобками обозначены формы облаков: Ci - перистые, Cs - перисто-слоистые, Cc - перисто-кучевые, Ac - высококучевые, As - высокослоистые, Sc - слоисто-кучевые, Ns - слоисто-дождевые, Cu - кучевые, Cb - кучево-дождевые. Подробнее классификацию облаков см. в Атласе облаков (PDF).
T - Температура воздуха - температура, измеренная на высоте 2 м над землей.
Td - Температура точки росы - температура, при понижении до которой содержащийся в воздухе водяной пар достигнет насыщения.
f - Относительная влажность воздуха - влажноcть воздуха, измеренная на высоте 2 м над землей.
Te - Эффективная температура - температура, которую ощущает одетый по сезону человек в тени. Характеристика душности погоды. При расчете учитывается влияние влажности воздуха и скорости ветра на теплоощущения человека.
Tes - Эффективная температура на солнце - температура, которую ощущает человек, с поправкой на солнечный нагрев. Характеристика знойности погоды. Зависит от высоты солнца над горизонтом, облачности и скорости ветра. Ночью, в пасмурную погоду, а также при ветре 12 м/с и более поправка равна нулю.
P - Атмосферное давление - приведенное к уровню моря атмосферное давление.
Po - Атмосферное давление - измеренное на уровне метеостанции атмосферное давление.
Tmin - Минимальная температура - минимум температуры воздуха на высоте 2 м над землей.
Tmax - Максимальная температура - максимум температуры воздуха на высоте 2 м над землей.
R - Количество осадков - Количество выпавших осадков за период времени, мм. При наведении курсора мыши на число - период времени, за который выпало указанное количество осадков.
R24 - Количество осадков - Количество выпавших осадков за 24 часа, мм.
S - Снежный покров - Высота снежного покрова, см. При наведении курсора мыши на число - состояние снежного покрова и степень покрытия местности в баллах.